Miscellaneous Local Product
Issued by NWS North Platte, NE

Home | Current Version | Previous Version | Graphics & Text | Print | Product List | Glossary On
Versions: 1 2 3 4 5 6 7 8 9 10 11 12 13 14 15 16 17 18 19 20 21 22 23 24 25 26 27 28 29 30 31 32 33 34 35 36 37 38 39 40 41 42 43 44 45 46 47 48 49 50
000
AXUS43 KLBF 280110
MISLBF


WESTERN AND NORTH CENTRAL NEBRASKA HOURLY WEATHER ROUNDUP
NATIONAL WEATHER SERVICE NORTH PLATTE NE
700 PM CST MON FEB 27 2017

NOTE: "FAIR" INDICATES FEW OR NO CLOUDS BELOW 12,000 FEET WITH NO
SIGNIFICANT WEATHER AND/OR OBSTRUCTIONS TO VISIBILITY.

NOTE: STATIONS NOT REPORTING VARIABLES SUCH AS SKY/WEATHER OR
PRESSURE ARE PROVIDED BY RAWS AND APRS NETWORKS AND ARE NOT UNDER
NATIONAL WEATHER SERVICE QUALITY CONTROL.

...OBSERVATIONS IN AND NEAR THE EASTERN PANHANDLE OF NEBRASKA...

CITY           SKY/WX    TMP DP  RH WIND       PRES   REMARKS
PINE RIDGE     CLOUDY    34  26  72 SW6       29.65R WCI  29
CHADRON        LGT SNOW  32  27  81 SW5       29.65R WCI  27
ALLIANCE       CLOUDY    32  23  69 N21       29.60R WCI  20
SIDNEY         CLOUDY    41  20  43 S6        29.52S
CRESCENT LAKE    N/A     37  28  70 S5          N/A  WCI  33
$$

...OBSERVATIONS IN NORTHERN NEBRASKA AND FAR SOUTHERN SOUTH DAKOTA...

CITY           SKY/WX    TMP DP  RH WIND       PRES   REMARKS
WINNER         FAIR      38  30  73 S8        29.66R WCI  32
VALENTINE      CLOUDY    38  29  70 N5        29.63R WCI  34
THEDFORD       CLEAR     38  30  73 SE5       29.61F WCI  34
AINSWORTH      CLEAR     36  32  84 E6        29.63S WCI  31
O`NEILL        CLEAR     41  32  72 SE5       29.67S
ORD            CLEAR     46  33  60 SE3       29.65S
BROKEN BOW     CLEAR     37  30  75 CALM      29.64R
VALENTINE NWR    N/A     40  31  71 S6          N/A
BUTTE            N/A     37  30  75 E8          N/A  WCI  31
HALSEY           N/A     45  29  53 SE5G13      N/A
CHAMBERS         N/A     37  27  68 CALM        N/A
EWING            N/A     39  32  77 CALM        N/A
$$

...OBSERVATIONS IN SOUTHWEST NEBRASKA AND FAR NORTHEAST COLORADO...

CITY           SKY/WX    TMP DP  RH WIND       PRES   REMARKS
HOLYOKE        FAIR      45  21  39 E12       29.51F
IMPERIAL       CLEAR     44  21  40 E12       29.54F
OGALLALA       CLEAR     45  26  47 E10       29.54F
NORTH PLATTE   CLEAR     37  21  52 E8        29.60F WCI  31
MCCOOK         CLOUDY    47  21  35 E10       29.59F
LEXINGTON      CLEAR     44  25  47 SE5       29.64S
STAPLETON        N/A     41  29  61 CALM        N/A
GOTHENBURG       N/A     45  23  41 SE3         N/A
CALLAWAY         N/A     36  27  71 SE8         N/A  WCI  30
$$

...OBSERVATIONS IN CENTRAL LINCOLN COUNTY AREA...

CITY           SKY/WX    TMP DP  RH WIND       PRES   REMARKS
N.P. AIRPORT   CLEAR     37  21  52 E8        29.60F WCI  31
N.P. DOWNTOWN    N/A     18  11  74 W3          N/A
N.P. SOUTHEAST   N/A     44  25  47 CALM        N/A
N.P. HILLCREST   N/A     44  25  47 E9          N/A
$$

...SOME OBSERVATIONS FROM AROUND THE REGION...

CITY           SKY/WX    TMP DP  RH WIND       PRES   REMARKS
LARAMIE        LGT SNOW  21  17  84 NW9       29.59R VSB 1   WCI  11
CHEYENNE       CLOUDY    28  22  78 NW17G25   29.59R WCI  16
DENVER         CLOUDY    50   5  16 SW18G26   29.54R
AKRON          CLOUDY    48   9  20 SW12      29.51S
SCOTTSBLUFF    CLEAR     33  26  75 NW12      29.62R WCI  24
RAPID CITY     CLOUDY    34  17  50 NE8       29.62R WCI  27
BISMARCK       CLOUDY    21  16  81 NE10      29.83R WCI  10
PIERRE         CLOUDY    39  21  48 N14       29.66R WCI  31
SIOUX FALLS    CLOUDY    41  30  65 SE9       29.76S
OMAHA          PTCLDY    46  28  49 SE8       29.75F
GRAND ISLAND   CLEAR     48  39  71 S10       29.68S
KANSAS CITY    PTCLDY    56  40  55 S13       29.78S
WICHITA        MOCLDY    55  47  74 SE9       29.71F
OKLAHOMA CITY  PTCLDY    62  58  86 S15       29.80R
DALLAS         PTCLDY    74  62  66 S10       29.84R
AMARILLO       CLOUDY    60  16  18 SW13      29.78R
DODGE CITY     CLOUDY    55  19  24 S8        29.65S
GOODLAND       CLOUDY    47  12  24 S15       29.56S
$$




USA.gov is the U.S. government's official web portal to all federal, state and local government web resources and services.